Location: Great Falls
(47.5000°N, 111.3000°W)
Time: 06:46:10
(UTC-07:00)

ISS - Visible Passes

Search period start: 21 January 2019 00:00
Search period end: 31 January 2019 00:00
Orbit: 404 x 410 km, 51.6° (Epoch: 22 January)

Date Brightness Start Highest point End Pass type
(mag) Time Alt. Az. Time Alt. Az. Time Alt. Az.
22 Jan -2.1 19:11:52 10° SSW 19:13:43 23° S 19:13:43 23° S visible
23 Jan -1.9 18:21:19 10° S 18:23:36 18° SE 18:24:45 15° ESE visible
23 Jan -1.1 19:56:28 10° WSW 19:57:30 19° WSW 19:57:30 19° WSW visible
24 Jan -3.7 19:05:12 10° SW 19:08:27 58° SSE 19:08:27 58° SSE visible
25 Jan -2.9 18:14:08 10° SSW 18:17:11 35° SE 18:19:20 17° E visible
25 Jan -1.6 19:50:23 10° W 19:52:03 26° W 19:52:03 26° W visible
26 Jan -3.8 18:58:55 10° WSW 19:02:14 77° NNW 19:02:52 54° NE visible
27 Jan -3.8 18:07:34 10° WSW 18:10:51 72° SSE 18:13:38 14° ENE visible
27 Jan -1.9 19:44:23 10° W 19:46:21 29° WNW 19:46:21 29° WNW visible
28 Jan -3.3 18:52:50 10° W 18:56:03 50° NNW 18:57:05 35° NE visible
29 Jan -3.6 18:01:18 10° WSW 18:04:35 66° NNW 18:07:46 11° ENE visible
29 Jan -2.1 19:38:19 10° WNW 19:40:29 30° NW 19:40:29 30° NW visible
30 Jan -3.0 18:46:45 10° WNW 18:49:54 40° N 18:51:10 27° NE visible
30 Jan -0.4 20:23:35 10° WNW 20:23:52 12° WNW 20:23:52 12° WNW visible
